Dr. Ulrich Godt
Wetterdaten: aktuell Freitag, 19.04.2019 21:09
Datum Zeit Temp. A. Temp Boden Feuchte A. Luftdruck Regen Wind Richtung Richtung Sonnenschein Windchill
19.04.2019 21:09 20,6 C 18,1 C 27 % 1028,6 hPa 0,0 l/m 0,6 km/h (0 Bft) O 80 0 min 20,6 C
19.04.2019 21:00 20,6 C 18,3 C 27 % 1028,6 hPa 0,0 l/m 0,4 km/h (0 Bft) O-NO 70 0 min 20,6 C
19.04.2019 20:50 20,6 C 19,8 C 27 % 1028,6 hPa 0,0 l/m 6,7 km/h (2 Bft) O-NO 70 0 min 20,5 C
19.04.2019 20:40 20,6 C 19,8 C 27 % 1028,6 hPa 0,0 l/m 4,9 km/h (1 Bft) O-NO 70 0 min 20,6 C
19.04.2019 20:30 20,6 C 19,9 C 27 % 1028,6 hPa 0,0 l/m 4,9 km/h (1 Bft) O-NO 70 0 min 20,6 C
19.04.2019 20:19 20,6 C 20,5 C 27 % 1028,6 hPa 0,0 l/m 4,9 km/h (1 Bft) O-NO 70 0 min 20,6 C
19.04.2019 20:10 20,6 C 20,9 C 27 % 1028,6 hPa 0,0 l/m 4,9 km/h (1 Bft) O-NO 70 10 min 20,6 C
19.04.2019 20:00 20,6 C 21,3 C 27 % 1028,6 hPa 0,0 l/m 4,9 km/h (1 Bft) O-NO 70 10 min 20,6 C
19.04.2019 19:50 20,6 C 23,6 C 27 % 1027,6 hPa 0,0 l/m 4,9 km/h (1 Bft) O-NO 70 10 min 20,6 C
19.04.2019 19:40 20,6 C 23,6 C 27 % 1027,6 hPa 0,0 l/m 4,9 km/h (1 Bft) O-NO 70 10 min 20,6 C
19.04.2019 19:30 20,6 C 23,1 C 27 % 1027,6 hPa 0,0 l/m 4,9 km/h (1 Bft) O-NO 70 11 min 20,6 C
19.04.2019 19:19 20,6 C 23,4 C 27 % 1027,6 hPa 0,0 l/m 4,9 km/h (1 Bft) O-NO 70 9 min 20,6 C
19.04.2019 19:10 20,6 C 23,3 C 27 % 1027,6 hPa 0,0 l/m 7,8 km/h (2 Bft) O45 100 10 min 20,1 C
19.04.2019 19:00 20,6 C 23,8 C 27 % 1027,6 hPa 0,0 l/m 7,8 km/h (2 Bft) O45 100 0 min 20,1 C
19.04.2019 18:50 20,6 C 24,0 C 27 % 1027,6 hPa 0,0 l/m 7,8 km/h (2 Bft) O45 100 10 min 20,1 C
19.04.2019 18:40 20,6 C 24,2 C 27 % 1027,6 hPa 0,0 l/m 14,5 km/h (3 Bft) SO45 140 0 min 18,1 C
19.04.2019 18:30 20,6 C 24,2 C 27 % 1027,6 hPa 0,0 l/m 14,5 km/h (3 Bft) SO45 140 11 min 18,1 C
19.04.2019 18:19 20,6 C 24,2 C 27 % 1027,6 hPa 0,0 l/m 14,5 km/h (3 Bft) SO45 140 0 min 18,1 C
19.04.2019 18:10 20,6 C 24,5 C 27 % 1027,6 hPa 0,0 l/m 14,5 km/h (3 Bft) SO45 140 0 min 18,1 C
19.04.2019 18:00 20,6 C 24,1 C 27 % 1027,6 hPa 0,0 l/m 14,5 km/h (3 Bft) SO45 140 0 min 18,1 C
19.04.2019 17:50 20,6 C 24,8 C 27 % 1027,6 hPa 0,0 l/m 14,5 km/h (3 Bft) SO45 140 0 min 18,1 C
19.04.2019 17:40 20,6 C 25,2 C 27 % 1027,6 hPa 0,0 l/m 14,5 km/h (3 Bft) SO45 140 0 min 18,1 C
19.04.2019 17:30 20,6 C 24,5 C 27 % 1027,6 hPa 0,0 l/m 14,5 km/h (3 Bft) SO45 140 0 min 18,1 C
19.04.2019 17:20 20,6 C 24,8 C 27 % 1027,6 hPa 0,0 l/m 14,5 km/h (3 Bft) SO45 140 10 min 18,1 C
19.04.2019 17:10 20,6 C 25,2 C 27 % 1027,6 hPa 0,0 l/m 14,5 km/h (3 Bft) SO45 140 10 min 18,1 C
19.04.2019 17:00 20,6 C 25,1 C 27 % 1027,6 hPa 0,0 l/m 14,5 km/h (3 Bft) SO45 140 10 min 18,1 C
19.04.2019 16:50 20,6 C 25,3 C 27 % 1027,6 hPa 0,0 l/m 14,5 km/h (3 Bft) SO45 140 10 min 18,1 C
19.04.2019 16:40 20,6 C 25,1 C 27 % 1028,6 hPa 0,0 l/m 14,5 km/h (3 Bft) SO45 140 11 min 18,1 C
19.04.2019 16:29 20,6 C 24,7 C 27 % 1028,6 hPa 0,0 l/m 14,5 km/h (3 Bft) SO45 140 9 min 18,1 C
19.04.2019 16:20 20,6 C 25,0 C 27 % 1028,6 hPa 0,0 l/m 14,5 km/h (3 Bft) SO45 140 10 min 18,1 C
19.04.2019 16:10 20,6 C 25,3 C 27 % 1028,6 hPa 0,0 l/m 14,5 km/h (3 Bft) SO45 140 10 min 18,1 C
19.04.2019 16:00 20,6 C 25,6 C 27 % 1028,6 hPa 0,0 l/m 14,5 km/h (3 Bft) SO45 140 10 min 18,1 C
19.04.2019 15:50 20,6 C 26,1 C 27 % 1028,6 hPa 0,0 l/m 14,5 km/h (3 Bft) SO45 140 10 min 18,1 C
19.04.2019 15:40 20,6 C 26,3 C 27 % 1028,6 hPa 0,0 l/m 14,5 km/h (3 Bft) SO45 140 11 min 18,1 C
19.04.2019 15:29 20,6 C 26,4 C 27 % 1028,6 hPa 0,0 l/m 14,5 km/h (3 Bft) SO45 140 9 min 18,1 C
19.04.2019 15:20 20,6 C 26,4 C 27 % 1028,6 hPa 0,0 l/m 14,5 km/h (3 Bft) SO45 140 10 min 18,1 C
19.04.2019 15:10 20,6 C 25,4 C 27 % 1028,6 hPa 0,0 l/m 14,5 km/h (3 Bft) SO45 140 10 min 18,1 C
19.04.2019 15:00 20,6 C 24,9 C 27 % 1028,6 hPa 0,0 l/m 14,5 km/h (3 Bft) SO45 140 10 min 18,1 C
19.04.2019 14:50 20,6 C 24,6 C 27 % 1028,6 hPa 0,0 l/m 14,5 km/h (3 Bft) SO45 140 10 min 18,1 C
19.04.2019 14:40 20,6 C 24,5 C 27 % 1028,6 hPa 0,0 l/m 14,5 km/h (3 Bft) SO45 140 11 min 18,1 C
19.04.2019 14:29 20,6 C 23,8 C 27 % 1028,6 hPa 0,0 l/m 14,5 km/h (3 Bft) SO45 140 9 min 18,1 C
19.04.2019 14:20 20,6 C 23,5 C 27 % 1028,6 hPa 0,0 l/m 14,5 km/h (3 Bft) SO45 140 10 min 18,1 C
19.04.2019 14:10 20,6 C 24,2 C 27 % 1028,6 hPa 0,0 l/m 14,5 km/h (3 Bft) SO45 140 10 min 18,1 C
19.04.2019 14:00 20,6 C 24,0 C 27 % 1028,6 hPa 0,0 l/m 14,5 km/h (3 Bft) SO45 140 10 min 18,1 C
19.04.2019 13:50 20,6 C 23,7 C 27 % 1029,6 hPa 0,0 l/m 14,5 km/h (3 Bft) SO45 140 10 min 18,1 C
19.04.2019 13:40 20,6 C 23,2 C 27 % 1029,6 hPa 0,0 l/m 14,5 km/h (3 Bft) SO45 140 11 min 18,1 C
19.04.2019 13:29 20,6 C 23,0 C 27 % 1029,6 hPa 0,0 l/m 14,5 km/h (3 Bft) SO45 140 9 min 18,1 C
19.04.2019 13:20 20,6 C 23,1 C 27 % 1029,6 hPa 0,0 l/m 14,5 km/h (3 Bft) SO45 140 10 min 18,1 C
19.04.2019 13:10 20,6 C 23,1 C 27 % 1029,6 hPa 0,0 l/m 14,5 km/h (3 Bft) SO45 140 10 min 18,1 C
19.04.2019 13:00 20,6 C 22,3 C 27 % 1029,6 hPa 0,0 l/m 14,5 km/h (3 Bft) SO45 140 10 min 18,1 C
19.04.2019 12:50 20,6 C 21,9 C 27 % 1029,6 hPa 0,0 l/m 14,5 km/h (3 Bft) SO45 140 10 min 18,1 C
19.04.2019 12:40 20,6 C 21,9 C 27 % 1029,6 hPa 0,0 l/m 14,5 km/h (3 Bft) SO45 140 10 min 18,1 C
19.04.2019 12:30 20,6 C 21,5 C 27 % 1029,6 hPa 0,0 l/m 14,5 km/h (3 Bft) SO45 140 10 min 18,1 C
19.04.2019 12:20 20,6 C 21,9 C 27 % 1029,6 hPa 0,0 l/m 14,5 km/h (3 Bft) SO45 140 4 min 18,1 C
19.04.2019 12:16 20,6 C 22,4 C 27 % 1029,6 hPa 0,0 l/m 14,5 km/h (3 Bft) SO45 140 5 min 18,1 C
19.04.2019 12:11 20,6 C 22,4 C 27 % 1029,6 hPa 0,0 l/m 14,5 km/h (3 Bft) SO45 140 5 min 18,1 C
19.04.2019 12:06 20,5 C 23,7 C 26 % 1029,6 hPa 0,0 l/m 14,5 km/h (3 Bft) SO45 140 5 min 18,0 C
19.04.2019 12:01 20,4 C 25,3 C 28 % 1029,6 hPa 0,0 l/m 12,9 km/h (3 Bft) S-SO67.5 150 5 min 18,2 C
19.04.2019 11:56 20,3 C 23,4 C 25 % 1029,6 hPa 0,0 l/m 14,5 km/h (3 Bft) SO45 145 5 min 17,7 C
19.04.2019 11:51 20,2 C 23,4 C 27 % 1029,6 hPa 0,0 l/m 23,4 km/h (4 Bft) SO45 140 5 min 15,9 C
19.04.2019 11:46 20,2 C 22,8 C 28 % 1029,6 hPa 0,0 l/m 19,5 km/h (3 Bft) S-SO45 160 5 min 16,6 C
19.04.2019 11:41 20,0 C 21,2 C 29 % 1029,6 hPa 0,0 l/m 12,9 km/h (3 Bft) SO45 130 5 min 17,8 C
19.04.2019 11:36 19,8 C 21,5 C 27 % 1029,7 hPa 0,0 l/m 18,5 km/h (3 Bft) O67.5 85 5 min 16,2 C
19.04.2019 11:31 19,6 C 20,5 C 28 % 1029,7 hPa 0,0 l/m 12,0 km/h (2 Bft) O67.5 85 5 min 17,6 C
19.04.2019 11:26 19,6 C 20,5 C 30 % 1029,7 hPa 0,0 l/m 13,3 km/h (3 Bft) SO67.5 125 5 min 17,2 C
19.04.2019 11:21 19,4 C 19,8 C 29 % 1029,7 hPa 0,0 l/m 19,2 km/h (3 Bft) O-NO45 65 5 min 15,6 C
19.04.2019 11:16 19,0 C 19,7 C 31 % 1029,7 hPa 0,0 l/m 13,0 km/h (3 Bft) O67.5 95 5 min 16,6 C
19.04.2019 11:11 19,0 C 19,5 C 31 % 1029,7 hPa 0,0 l/m 20,3 km/h (4 Bft) O45 90 5 min 14,9 C
19.04.2019 11:06 18,9 C 19,6 C 32 % 1029,7 hPa 0,0 l/m 13,6 km/h (3 Bft) O-SO67.5 115 5 min 16,3 C
19.04.2019 11:01 18,8 C 19,6 C 31 % 1029,7 hPa 0,0 l/m 20,4 km/h (4 Bft) O22.5 80 5 min 14,6 C
19.04.2019 10:56 18,8 C 18,7 C 32 % 1029,7 hPa 0,0 l/m 17,3 km/h (3 Bft) O67.5 95 5 min 15,2 C
19.04.2019 10:51 18,6 C 18,8 C 32 % 1029,7 hPa 0,0 l/m 14,8 km/h (3 Bft) SO67.5 140 5 min 15,6 C
19.04.2019 10:46 18,4 C 18,4 C 32 % 1029,7 hPa 0,0 l/m 12,8 km/h (3 Bft) O-SO67.5 115 5 min 15,9 C
19.04.2019 10:41 18,3 C 18,4 C 33 % 1029,7 hPa 0,0 l/m 17,6 km/h (3 Bft) O-SO67.5 115 5 min 14,5 C
19.04.2019 10:36 18,2 C 18,5 C 33 % 1029,7 hPa 0,0 l/m 15,8 km/h (3 Bft) SO67.5 135 5 min 14,9 C
19.04.2019 10:31 18,0 C 18,0 C 33 % 1029,7 hPa 0,0 l/m 18,6 km/h (3 Bft) O-SO67.5 105 5 min 13,9 C
19.04.2019 10:26 17,8 C 18,4 C 36 % 1029,8 hPa 0,0 l/m 18,6 km/h (3 Bft) SO45 125 5 min 13,7 C
19.04.2019 10:21 17,7 C 18,5 C 35 % 1029,8 hPa 0,0 l/m 13,6 km/h (3 Bft) O-SO22.5 120 5 min 14,9 C
19.04.2019 10:16 17,5 C 19,5 C 36 % 1029,8 hPa 0,0 l/m 12,3 km/h (3 Bft) O-SO67.5 115 5 min 15,0 C
19.04.2019 10:11 17,3 C 19,6 C 36 % 1029,8 hPa 0,0 l/m 12,0 km/h (2 Bft) SO67.5 135 5 min 14,9 C
19.04.2019 10:06 17,2 C 19,5 C 36 % 1029,8 hPa 0,0 l/m 12,0 km/h (2 Bft) O-NO22.5 70 5 min 14,8 C
19.04.2019 10:01 16,9 C 19,8 C 37 % 1029,8 hPa 0,0 l/m 6,9 km/h (2 Bft) O22.5 100 5 min 16,7 C
19.04.2019 09:56 16,8 C 19,3 C 37 % 1029,8 hPa 0,0 l/m 9,1 km/h (2 Bft) O-SO67.5 115 5 min 15,5 C
19.04.2019 09:51 16,6 C 19,6 C 38 % 1029,8 hPa 0,0 l/m 9,1 km/h (2 Bft) O-SO67.5 115 5 min 15,3 C
19.04.2019 09:46 16,5 C 19,1 C 37 % 1029,8 hPa 0,0 l/m 14,1 km/h (3 Bft) O45 85 5 min 13,3 C
19.04.2019 09:41 16,3 C 18,9 C 39 % 1029,8 hPa 0,0 l/m 14,1 km/h (3 Bft) O-SO45 105 5 min 13,0 C
19.04.2019 09:36 16,1 C 18,5 C 39 % 1029,8 hPa 0,0 l/m 11,0 km/h (2 Bft) O-SO45 105 5 min 13,9 C
19.04.2019 09:31 16,0 C 18,3 C 38 % 1029,8 hPa 0,0 l/m 16,3 km/h (3 Bft) O67.5 85 5 min 12,0 C
19.04.2019 09:26 15,9 C 18,2 C 40 % 1029,8 hPa 0,0 l/m 7,2 km/h (2 Bft) O-NO22.5 70 5 min 15,5 C
19.04.2019 09:21 15,8 C 17,8 C 40 % 1029,9 hPa 0,0 l/m 7,6 km/h (2 Bft) SO22.5 125 5 min 15,1 C
19.04.2019 09:16 15,7 C 17,6 C 40 % 1029,9 hPa 0,0 l/m 13,4 km/h (3 Bft) O-SO22.5 105 5 min 12,6 C
19.04.2019 09:11 15,5 C 17,4 C 40 % 1029,9 hPa 0,0 l/m 7,9 km/h (2 Bft) O-NO22.5 60 5 min 14,7 C
19.04.2019 09:06 15,3 C 17,0 C 41 % 1029,9 hPa 0,0 l/m 5,5 km/h (1 Bft) O-NO 65 5 min 15,3 C
19.04.2019 09:01 15,3 C 16,9 C 41 % 1029,9 hPa 0,0 l/m 10,3 km/h (2 Bft) O-SO22.5 105 5 min 13,3 C
19.04.2019 08:56 15,3 C 16,8 C 41 % 1029,9 hPa 0,0 l/m 4,2 km/h (1 Bft) O-NO 75 5 min 15,3 C
19.04.2019 08:51 15,3 C 16,6 C 41 % 1029,9 hPa 0,0 l/m 8,1 km/h (2 Bft) O45 80 5 min 14,4 C
19.04.2019 08:46 15,4 C 16,3 C 40 % 1029,9 hPa 0,0 l/m 8,3 km/h (2 Bft) O-NO45 70 5 min 14,4 C
19.04.2019 08:41 15,5 C 15,9 C 40 % 1029,9 hPa 0,0 l/m 5,3 km/h (1 Bft) O-SO 110 5 min 15,5 C
19.04.2019 08:36 15,7 C 15,7 C 39 % 1029,9 hPa 0,0 l/m 10,2 km/h (2 Bft) O-NO 70 0 min 13,8 C
19.04.2019 08:31 16,1 C 15,4 C 39 % 1029,8 hPa 0,0 l/m 8,3 km/h (2 Bft) O-NO 70 0 min 15,1 C
19.04.2019 08:26 16,3 C 15,6 C 39 % 1029,8 hPa 0,0 l/m 2,0 km/h (1 Bft) O-NO22.5 70 0 min 16,3 C
19.04.2019 08:21 17,0 C 15,2 C 37 % 1029,8 hPa 0,0 l/m 0,3 km/h (0 Bft) O-NO 60 0 min 17,0 C
19.04.2019 08:16 18,0 C 14,3 C 38 % 1029,7 hPa 0,0 l/m 0,0 km/h (0 Bft) O-NO 60 0 min 18,0 C
19.04.2019 08:11 18,7 C 13,4 C 38 % 1029,7 hPa 0,0 l/m 0,0 km/h (0 Bft) O-NO 60 0 min 18,7 C
19.04.2019 08:06 20,4 C 13,2 C 40 % 1029,6 hPa 0,0 l/m 0,0 km/h (0 Bft) O-NO 60 0 min 20,4 C
19.04.2019 08:01 20,4 C 13,2 C 42 % 1029,6 hPa 0,0 l/m 0,0 km/h (0 Bft) O-NO 60 0 min 20,4 C
19.04.2019 07:56 20,1 C 13,1 C 42 % 1028,6 hPa 0,0 l/m 0,0 km/h (0 Bft) O-NO 60 0 min 20,1 C
19.04.2019 07:51 19,2 C 12,8 C 45 % 1028,7 hPa 0,0 l/m 0,0 km/h (0 Bft) O-NO 60 0 min 19,2 C
19.04.2019 07:46 18,3 C 12,8 C 47 % 1028,7 hPa 0,0 l/m 0,0 km/h (0 Bft) O-NO 60 0 min 18,3 C
19.04.2019 07:41 17,8 C 12,6 C 48 % 1028,7 hPa 0,0 l/m 0,0 km/h (0 Bft) O-NO 60 0 min 17,8 C
19.04.2019 07:36 16,8 C 12,5 C 51 % 1028,8 hPa 0,0 l/m 0,0 km/h (0 Bft) O-NO 60 5 min 16,8 C
19.04.2019 07:31 15,8 C 12,3 C 53 % 1028,8 hPa 0,0 l/m 0,0 km/h (0 Bft) O-NO 60 5 min 15,8 C
19.04.2019 07:26 14,8 C 12,3 C 55 % 1028,9 hPa 0,0 l/m 0,0 km/h (0 Bft) O-NO 60 5 min 14,8 C
19.04.2019 07:21 14,3 C 12,1 C 56 % 1028,9 hPa 0,0 l/m 0,0 km/h (0 Bft) O-NO 60 5 min 14,3 C
19.04.2019 07:16 13,3 C 12,0 C 57 % 1029,0 hPa 0,0 l/m 0,0 km/h (0 Bft) O-NO 60 5 min 13,3 C
19.04.2019 07:11 12,2 C 12,1 C 59 % 1029,0 hPa 0,0 l/m 0,0 km/h (0 Bft) O-NO 60 5 min 12,2 C
19.04.2019 07:06 11,7 C 12,0 C 60 % 1029,1 hPa 0,0 l/m 0,0 km/h (0 Bft) O-NO 60 5 min 11,7 C
19.04.2019 07:01 10,5 C 12,0 C 61 % 1029,1 hPa 0,0 l/m 0,0 km/h (0 Bft) O-NO 60 0 min 10,5 C
19.04.2019 06:56 9,4 C 12,1 C 61 % 1029,2 hPa 0,0 l/m 5,6 km/h (1 Bft) O-NO 60 0 min 9,4 C
19.04.2019 06:51 8,8 C 12,4 C 62 % 1029,2 hPa 0,0 l/m 5,7 km/h (1 Bft) O-NO 60 5 min 8,8 C
19.04.2019 06:46 7,9 C 12,2 C 63 % 1029,3 hPa 0,0 l/m 7,2 km/h (2 Bft) O-NO 60 0 min 7,3 C
19.04.2019 06:41 7,5 C 11,5 C 61 % 1029,3 hPa 0,0 l/m 6,5 km/h (2 Bft) O-NO 60 5 min 7,4 C
19.04.2019 06:36 7,2 C 10,8 C 57 % 1029,3 hPa 0,0 l/m 4,6 km/h (1 Bft) NO 50 5 min 7,2 C
19.04.2019 06:31 7,2 C 10,8 C 57 % 1029,3 hPa 0,0 l/m 0,1 km/h (0 Bft) NO 50 0 min 7,2 C
19.04.2019 06:26 7,2 C 10,9 C 57 % 1029,3 hPa 0,0 l/m 0,0 km/h (0 Bft) NO 50 0 min 7,2 C
19.04.2019 06:21 7,3 C 11,1 C 57 % 1029,3 hPa 0,0 l/m 0,0 km/h (0 Bft) NO 50 0 min 7,3 C
19.04.2019 06:16 7,3 C 11,0 C 57 % 1029,3 hPa 0,0 l/m 0,0 km/h (0 Bft) NO 50 0 min 7,3 C
19.04.2019 06:11 7,4 C 11,3 C 55 % 1029,3 hPa 0,0 l/m 0,0 km/h (0 Bft) NO 50 0 min 7,4 C
19.04.2019 06:06 7,5 C 11,4 C 55 % 1029,3 hPa 0,0 l/m 0,0 km/h (0 Bft) NO 50 0 min 7,5 C
19.04.2019 06:01 7,5 C 11,3 C 56 % 1029,3 hPa 0,0 l/m 0,0 km/h (0 Bft) NO 50 0 min 7,5 C
19.04.2019 05:56 7,5 C 11,3 C 54 % 1029,3 hPa 0,0 l/m 0,0 km/h (0 Bft) NO 50 0 min 7,5 C
19.04.2019 05:51 7,6 C 11,2 C 55 % 1029,3 hPa 0,0 l/m 0,0 km/h (0 Bft) NO 50 0 min 7,6 C
19.04.2019 05:46 7,6 C 11,5 C 54 % 1029,3 hPa 0,0 l/m 0,0 km/h (0 Bft) NO 50 0 min 7,6 C
19.04.2019 05:41 7,7 C 11,5 C 53 % 1029,3 hPa 0,0 l/m 0,0 km/h (0 Bft) NO 50 0 min 7,7 C
19.04.2019 05:36 7,8 C 11,5 C 54 % 1029,3 hPa 0,0 l/m 0,0 km/h (0 Bft) NO 50 0 min 7,8 C
19.04.2019 05:31 7,9 C 11,5 C 53 % 1029,3 hPa 0,0 l/m 0,0 km/h (0 Bft) NO 50 0 min 7,9 C
19.04.2019 05:26 7,9 C 11,5 C 53 % 1029,3 hPa 0,0 l/m 0,0 km/h (0 Bft) NO 50 0 min 7,9 C
19.04.2019 05:21 8,0 C 11,6 C 53 % 1029,3 hPa 0,0 l/m 0,0 km/h (0 Bft) NO 50 0 min 8,0 C
19.04.2019 05:16 8,1 C 11,6 C 52 % 1029,2 hPa 0,0 l/m 0,0 km/h (0 Bft) NO 50 0 min 8,1 C
19.04.2019 05:11 8,1 C 11,7 C 52 % 1029,2 hPa 0,0 l/m 0,0 km/h (0 Bft) NO 50 0 min 8,1 C
19.04.2019 05:05 8,1 C 11,8 C 51 % 1029,2 hPa 0,0 l/m 0,0 km/h (0 Bft) NO 50 0 min 8,1 C
19.04.2019 05:00 8,4 C 11,6 C 50 % 1028,2 hPa 0,0 l/m 0,0 km/h (0 Bft) NO 50 0 min 8,4 C
19.04.2019 04:55 8,4 C 11,8 C 50 % 1028,2 hPa 0,0 l/m 0,0 km/h (0 Bft) NO 50 0 min 8,4 C
19.04.2019 04:50 8,5 C 11,7 C 50 % 1028,2 hPa 0,0 l/m 0,0 km/h (0 Bft) NO 50 0 min 8,5 C
19.04.2019 04:45 8,6 C 11,9 C 49 % 1028,2 hPa 0,0 l/m 0,0 km/h (0 Bft) NO 50 0 min 8,6 C
19.04.2019 04:40 8,7 C 12,0 C 50 % 1028,2 hPa 0,0 l/m 0,0 km/h (0 Bft) NO 50 0 min 8,7 C
19.04.2019 04:35 8,7 C 11,9 C 50 % 1028,2 hPa 0,0 l/m 0,0 km/h (0 Bft) NO 50 0 min 8,7 C
19.04.2019 04:30 8,8 C 11,9 C 49 % 1028,2 hPa 0,0 l/m 0,0 km/h (0 Bft) NO 50 0 min 8,8 C
19.04.2019 04:25 8,9 C 12,0 C 49 % 1028,2 hPa 0,0 l/m 0,0 km/h (0 Bft) NO 50 0 min 8,9 C
19.04.2019 04:20 9,0 C 11,9 C 48 % 1028,2 hPa 0,0 l/m 0,0 km/h (0 Bft) NO 50 0 min 9,0 C
19.04.2019 04:15 9,1 C 12,0 C 48 % 1028,2 hPa 0,0 l/m 0,0 km/h (0 Bft) NO 50 0 min 9,1 C
19.04.2019 04:10 9,3 C 12,2 C 47 % 1028,2 hPa 0,0 l/m 0,3 km/h (0 Bft) NO 50 0 min 9,3 C
19.04.2019 04:05 9,5 C 12,2 C 47 % 1028,2 hPa 0,0 l/m 0,0 km/h (0 Bft) NO 50 0 min 9,5 C
19.04.2019 04:00 9,5 C 12,2 C 47 % 1028,2 hPa 0,0 l/m 0,0 km/h (0 Bft) NO 50 0 min 9,5 C
19.04.2019 03:55 9,6 C 12,2 C 46 % 1028,2 hPa 0,0 l/m 0,0 km/h (0 Bft) NO 50 0 min 9,6 C
19.04.2019 03:50 9,8 C 12,4 C 46 % 1028,1 hPa 0,0 l/m 0,0 km/h (0 Bft) NO 50 0 min 9,8 C
19.04.2019 03:45 9,9 C 12,4 C 46 % 1028,1 hPa 0,0 l/m 0,0 km/h (0 Bft) NO 50 0 min 9,9 C
19.04.2019 03:40 10,0 C 12,3 C 46 % 1028,1 hPa 0,0 l/m 0,0 km/h (0 Bft) NO 50 0 min 10,0 C
19.04.2019 03:35 10,1 C 12,4 C 46 % 1028,1 hPa 0,0 l/m 0,0 km/h (0 Bft) NO 50 0 min 10,1 C
19.04.2019 03:30 10,2 C 12,2 C 47 % 1028,1 hPa 0,0 l/m 0,0 km/h (0 Bft) NO 50 0 min 10,2 C
19.04.2019 03:26 10,3 C 12,5 C 46 % 1028,1 hPa 0,0 l/m 0,0 km/h (0 Bft) NO 50 0 min 10,3 C
19.04.2019 03:21 10,7 C 12,6 C 42 % 1028,1 hPa 0,0 l/m 0,0 km/h (0 Bft) NO 50 0 min 10,7 C
19.04.2019 03:16 10,9 C 12,5 C 42 % 1028,1 hPa 0,0 l/m 0,0 km/h (0 Bft) NO 50 0 min 10,9 C
19.04.2019 03:11 11,1 C 12,7 C 42 % 1028,1 hPa 0,0 l/m 0,0 km/h (0 Bft) NO 50 0 min 11,1 C
19.04.2019 03:06 11,4 C 12,9 C 42 % 1028,1 hPa 0,0 l/m 0,0 km/h (0 Bft) NO 50 0 min 11,4 C
19.04.2019 03:01 11,5 C 13,1 C 42 % 1028,1 hPa 0,0 l/m 0,0 km/h (0 Bft) NO 50 0 min 11,5 C
19.04.2019 02:56 11,6 C 13,2 C 42 % 1028,0 hPa 0,0 l/m 0,1 km/h (0 Bft) NO 50 0 min 11,6 C
19.04.2019 02:51 11,7 C 13,3 C 42 % 1028,0 hPa 0,0 l/m 6,2 km/h (2 Bft) NO 50 0 min 11,7 C
19.04.2019 02:46 11,7 C 13,6 C 42 % 1028,0 hPa 0,0 l/m 4,8 km/h (1 Bft) NO 50 0 min 11,7 C
19.04.2019 02:41 11,7 C 13,7 C 43 % 1028,0 hPa 0,0 l/m 7,0 km/h (2 Bft) O-NO22.5 70 0 min 11,3 C
19.04.2019 02:36 11,7 C 13,4 C 43 % 1028,0 hPa 0,0 l/m 2,4 km/h (1 Bft) NO 45 0 min 11,7 C
19.04.2019 02:31 11,7 C 13,5 C 43 % 1028,0 hPa 0,0 l/m 4,6 km/h (1 Bft) NO 45 0 min 11,7 C
19.04.2019 02:26 11,6 C 13,4 C 43 % 1028,0 hPa 0,0 l/m 6,2 km/h (2 Bft) NO 45 0 min 11,6 C
19.04.2019 02:21 11,6 C 13,3 C 42 % 1028,0 hPa 0,0 l/m 2,8 km/h (1 Bft) NO 45 0 min 11,6 C
19.04.2019 02:16 11,6 C 13,3 C 42 % 1028,0 hPa 0,0 l/m 2,8 km/h (1 Bft) NO 45 0 min 11,6 C
19.04.2019 02:11 11,6 C 13,7 C 42 % 1028,0 hPa 0,0 l/m 0,6 km/h (0 Bft) NO 45 0 min 11,6 C
19.04.2019 02:06 11,5 C 13,6 C 43 % 1028,1 hPa 0,0 l/m 5,6 km/h (1 Bft) NO 45 0 min 11,5 C
19.04.2019 02:01 11,5 C 13,5 C 43 % 1028,1 hPa 0,0 l/m 3,0 km/h (1 Bft) NO 45 0 min 11,5 C
19.04.2019 01:56 11,4 C 13,5 C 43 % 1028,1 hPa 0,0 l/m 8,1 km/h (2 Bft) NO22.5 45 0 min 10,3 C
19.04.2019 01:51 11,3 C 13,4 C 44 % 1028,1 hPa 0,0 l/m 0,6 km/h (0 Bft) O-NO 60 0 min 11,3 C
19.04.2019 01:46 11,4 C 13,1 C 43 % 1028,1 hPa 0,0 l/m 1,3 km/h (1 Bft) O-NO 70 0 min 11,4 C
19.04.2019 01:41 11,5 C 13,2 C 43 % 1028,1 hPa 0,0 l/m 0,1 km/h (0 Bft) O-NO 70 0 min 11,5 C
19.04.2019 01:36 11,5 C 13,3 C 43 % 1028,1 hPa 0,0 l/m 0,5 km/h (0 Bft) O-NO 70 0 min 11,5 C
19.04.2019 01:31 11,5 C 13,3 C 43 % 1028,1 hPa 0,0 l/m 0,0 km/h (0 Bft) O-NO 70 0 min 11,5 C
19.04.2019 01:26 11,6 C 13,3 C 43 % 1028,0 hPa 0,0 l/m 0,6 km/h (0 Bft) O-NO 70 0 min 11,6 C
19.04.2019 01:21 11,6 C 13,3 C 42 % 1028,0 hPa 0,0 l/m 0,1 km/h (0 Bft) O-NO 70 0 min 11,6 C
19.04.2019 01:16 11,6 C 13,3 C 43 % 1028,0 hPa 0,0 l/m 0,6 km/h (0 Bft) O-NO 70 0 min 11,6 C
19.04.2019 01:11 11,6 C 13,5 C 43 % 1028,0 hPa 0,0 l/m 2,9 km/h (1 Bft) O-NO 70 0 min 11,6 C
19.04.2019 01:06 11,6 C 13,6 C 42 % 1028,0 hPa 0,0 l/m 0,1 km/h (0 Bft) O-NO 70 0 min 11,6 C
19.04.2019 01:01 11,6 C 13,5 C 42 % 1028,0 hPa 0,0 l/m 0,6 km/h (0 Bft) O-NO 60 0 min 11,6 C
19.04.2019 00:56 11,8 C 13,4 C 41 % 1028,0 hPa 0,0 l/m 0,0 km/h (0 Bft) O-NO 60 0 min 11,8 C
19.04.2019 00:51 11,8 C 13,4 C 41 % 1028,0 hPa 0,0 l/m 0,4 km/h (0 Bft) O-NO 60 0 min 11,8 C
19.04.2019 00:46 11,9 C 13,5 C 40 % 1028,0 hPa 0,0 l/m 0,1 km/h (0 Bft) O-NO 60 0 min 11,9 C
19.04.2019 00:41 12,1 C 13,7 C 40 % 1028,0 hPa 0,0 l/m 0,0 km/h (0 Bft) O-NO 60 0 min 12,1 C
19.04.2019 00:36 12,1 C 13,6 C 39 % 1028,0 hPa 0,0 l/m 0,0 km/h (0 Bft) O-NO 60 0 min 12,1 C
19.04.2019 00:31 12,4 C 13,9 C 39 % 1028,0 hPa 0,0 l/m 0,0 km/h (0 Bft) O-NO 60 0 min 12,4 C
19.04.2019 00:26 12,5 C 14,0 C 38 % 1028,0 hPa 0,0 l/m 0,0 km/h (0 Bft) O-NO 60 0 min 12,5 C
19.04.2019 00:21 12,6 C 14,0 C 37 % 1028,0 hPa 0,0 l/m 0,0 km/h (0 Bft) O-NO 60 0 min 12,6 C
19.04.2019 00:16 12,7 C 14,1 C 37 % 1028,0 hPa 0,0 l/m 0,0 km/h (0 Bft) O-NO 60 0 min 12,7 C
19.04.2019 00:11 13,0 C 14,0 C 37 % 1028,0 hPa 0,0 l/m 0,0 km/h (0 Bft) O-NO 60 0 min 13,0 C
19.04.2019 00:06 13,1 C 14,1 C 36 % 1028,0 hPa 0,0 l/m 0,0 km/h (0 Bft) O-NO 60 0 min 13,1 C
19.04.2019 00:01 13,2 C 14,1 C 36 % 1028,0 hPa 0,0 l/m 0,0 km/h (0 Bft) O-NO 60 0 min 13,2 C
_ Min-Zeit 06:26 06:31 11:56 16:50 - 00:01 - - - 06:26
Minimum _ 7,2 C 10,8 C 25 % 1027,6 hPa - 0,0 km/h (0 Bft) - - - 7,2 C
_ Max-Zeit 12:11 15:20 06:46 08:51 00:01 11:51 - - 13:40 19:19
Maximum _ 20,6 C 26,4 C 63 % 1029,9 hPa 0,0 l/m 23,4 km/h
SO (4 Bft)
- - 11 min 20,6 C
Durchschnitt _ 16,3 C 18,4 C 36 % 1028,7 hPa #0,0 l/m 7,7 km/h (2 Bft) SO - #11:05 h 15,1 C